Regional Weather Roundup
Issued by NWS

Home | Current Version | Previous Version | Graphics & Text | Print | Product List | Glossary On
Versions: 1 2 3 4 5 6 7 8 9 10 11 12 13 14 15 16 17 18 19 20 21 22 23 24 25 26 27 28 29 30 31 32 33 34 35 36 37 38 39 40 41 42 43 44 45 46 47 48 49 50
887
ASUS43 KTOP 230659
RWRKS

WEATHER ROUNDUP FOR KANSAS
NATIONAL WEATHER SERVICE GOODLAND KS
200 AM CDT THU MAR 23 2017

NOTE:  "FAIR" INDICATES FEW OR NO CLOUDS BELOW 12,000 FEET WITH NO
SIGNIFICANT WEATHER AND/OR OBSTRUCTIONS TO VISIBILITY.

KSZ001>006-013>018-027>032-041>047-230800-
NORTHWEST KANSAS

CITY           SKY/WX    TMP DP  RH WIND       PRES   REMARKS
GOODLAND       CLOUDY    44  38  79 S24       29.85F
HAYS             N/A     47  38  71 SE14      29.97F
HILL CITY      PTCLDY    46  37  71 SE8       29.95F
RUSSELL        MOCLDY    48  37  65 SE13      29.97F
$$

KSZ061>065-074>080-084>089-230800-
SOUTHWEST KANSAS

CITY           SKY/WX    TMP DP  RH WIND       PRES   REMARKS
DODGE CITY     CLOUDY    50  45  83 SE15      29.94F
ELKHART          N/A     51  40  66 SE18        N/A
GARDEN CITY    CLEAR     44  41  89 SE9       29.92F
GREAT BEND     CLOUDY    51  42  71 SE15      29.98F
LIBERAL        CLEAR     52  43  71 SE12      29.93F
$$

KSZ066>073-081>083-090>101-230800-
SOUTHEAST KANSAS

CITY           SKY/WX    TMP DP  RH WIND       PRES   REMARKS
CHANUTE        CLOUDY    56  40  55 SE10      30.10F
COFFEYVILLE    CLOUDY    57  44  62 SE10      30.09F
HUTCHINSON     CLOUDY    54  43  66 SE12      30.02F
MEDICINE LODGE   N/A     56  46  69 SE8G17    29.99F
NEWTON         CLOUDY    52  46  80 SE17G24   30.05S
PARSONS        CLOUDY    56  42  59 SE6       30.11F
WICHITA INTL   CLOUDY    55  49  80 SE13      30.02F
WICHITA JABRA  CLOUDY    54  49  83 SE13      30.03F
WICHITA MCCONL CLOUDY    55  48  76 S12       30.03F
WINFIELD       CLOUDY    56  47  71 SE12      30.04F
$$

KSZ007>012-019>026-033>040-048>060-102>105-230800-
NORTHEAST KANSAS

CITY           SKY/WX    TMP DP  RH WIND       PRES   REMARKS
CONCORDIA      CLOUDY    51  31  46 SE12      30.03F
EMPORIA        CLOUDY    53  42  66 SE13      30.08F
LAWRENCE       CLOUDY    52  32  46 E15       30.14F
MANHATTAN      CLOUDY    54  33  45 E8        30.08F
OLATHE IND     CLOUDY    51  28  41 E10       30.15F
OLATHE EXE     CLOUDY    49  28  44 SE12      30.16S
SALINA         CLOUDY    55  39  54 SE15      30.03F
TOPEKA BILLARD CLOUDY    52  32  46 E13       30.12F
TOPEKA FORBES  CLOUDY    53  32  44 SE10      30.12F
$$




USA.gov is the U.S. government's official web portal to all federal, state and local government web resources and services.